• In Germany
  • List of Countries
  • For 7 days
  • Water Temperature
  • Satellite Maps
  • Weather Map
  • Weather Widgets
  • user-avatar
    Login

    Hourly Weather Solden

    Today, 27 March, Monday

    Time Temperature Precipitation Wind Pressure Humidity
    00:00 -6°C° 0 mm 1 mps 582 mmHg 94%
    01:00 -6°C° 0 mm 1 mps 582 mmHg 93%
    02:00 -6°C° 0 mm 1 mps 582 mmHg 93%
    03:00 -6°C° 0 mm 1 mps 582 mmHg 94%
    04:00 -6°C° 0 mm 1 mps 582 mmHg 94%
    05:00 -4°C° 0 mm 1 mps 582 mmHg 93%
    06:00 -4°C° 0 mm 1 mps 582 mmHg 92%
    07:00 -4°C° 0 mm 1 mps 583 mmHg 90%
    08:00 -2°C° 0 mm 1 mps 584 mmHg 86%
    09:00 +1°C° 0 mm 1 mps 584 mmHg 81%
    10:00 +3°C° 0 mm 1 mps 585 mmHg 76%
    11:00 +3°C° 0 mm 1 mps 586 mmHg 74%
    12:00 +4°C° 0 mm 1 mps 586 mmHg 72%
    13:00 +5°C° 0 mm 1 mps 586 mmHg 70%
    14:00 +5°C° 0 mm 1 mps 586 mmHg 71%
    15:00 +5°C° 0 mm 1 mps 586 mmHg 72%
    16:00 +5°C° 0 mm 1 mps 585 mmHg 73%
    17:00 +2°C° 0 mm 1 mps 584 mmHg 79%
    18:00 0°C° 0 mm 1 mps 583 mmHg 86%
    19:00 -4°C° 0 mm 0 mps 582 mmHg 92%
    20:00 -4°C° 0 mm 0 mps 582 mmHg 93%
    21:00 -5°C° 0 mm 0 mps 582 mmHg 95%
    22:00 -5°C° 0 mm 0 mps 582 mmHg 96%
    23:00 -5°C° 0 mm 0 mps 582 mmHg 95%

    Tomorrow, 28 March, Tuesday

    Time Temperature Precipitation Wind Pressure Humidity
    00:00 -6°C° 0 mm 0 mps 582 mmHg 95%
    01:00 -6°C° 0 mm 0 mps 582 mmHg 95%
    02:00 -6°C° 0 mm 0 mps 582 mmHg 94%
    03:00 -6°C° 0 mm 0 mps 581 mmHg 94%
    04:00 -7°C° 0 mm 0 mps 581 mmHg 93%
    05:00 -6°C° 0 mm 0 mps 582 mmHg 90%
    06:00 -4°C° 0 mm 1 mps 582 mmHg 88%
    07:00 -3°C° 0 mm 1 mps 583 mmHg 85%
    08:00 -1°C° 0 mm 0 mps 584 mmHg 78%
    09:00 +1°C° 0 mm 0 mps 586 mmHg 72%
    10:00 +4°C° 0 mm 0 mps 587 mmHg 65%
    11:00 +5°C° 0 mm 0 mps 588 mmHg 63%
    12:00 +7°C° 0 mm 1 mps 588 mmHg 61%
    13:00 +7°C° 0 mm 1 mps 588 mmHg 60%
    14:00 +7°C° 0 mm 1 mps 588 mmHg 62%
    15:00 +7°C° 0 mm 1 mps 588 mmHg 64%
    16:00 +6°C° 0 mm 1 mps 587 mmHg 66%
    17:00 +4°C° 0 mm 1 mps 586 mmHg 74%
    18:00 +2°C° 0 mm 1 mps 585 mmHg 81%
    19:00 0°C° 0 mm 1 mps 584 mmHg 89%
    20:00 -1°C° 0 mm 1 mps 584 mmHg 90%
    21:00 -1°C° 0 mm 1 mps 585 mmHg 91%
    22:00 -1°C° 0 mm 1 mps 585 mmHg 91%
    23:00 -1°C° 0 mm 1 mps 585 mmHg 91%

    Day after tomorrow, 29 March, Wednesday

    Time Temperature Precipitation Wind Pressure Humidity
    00:00 -1°C° 0 mm 1 mps 585 mmHg 91%
    01:00 -1°C° 0 mm 1 mps 585 mmHg 91%
    02:00 -1°C° 0 mm 1 mps 585 mmHg 91%
    03:00 -2°C° 0 mm 1 mps 585 mmHg 91%
    04:00 -2°C° 0 mm 1 mps 585 mmHg 92%
    05:00 -1°C° 0 mm 1 mps 585 mmHg 90%
    06:00 -1°C° 0 mm 1 mps 586 mmHg 89%
    07:00 -1°C° 0 mm 1 mps 586 mmHg 88%
    08:00 +1°C° 0 mm 1 mps 587 mmHg 80%
    09:00 +3°C° 0 mm 1 mps 588 mmHg 73%
    10:00 +5°C° 0 mm 1 mps 589 mmHg 65%
    11:00 +6°C° 0 mm 1 mps 589 mmHg 62%
    12:00 +7°C° 0 mm 1 mps 589 mmHg 58%
    13:00 +8°C° 0 mm 1 mps 589 mmHg 55%
    14:00 +8°C° 0 mm 1 mps 589 mmHg 56%
    15:00 +7°C° 0 mm 1 mps 589 mmHg 58%
    16:00 +7°C° 0 mm 1 mps 589 mmHg 59%
    17:00 +5°C° 0 mm 1 mps 587 mmHg 68%
    18:00 +3°C° 0 mm 1 mps 586 mmHg 76%
    19:00 0°C° 0 mm 1 mps 585 mmHg 85%
    20:00 0°C° 0 mm 1 mps 585 mmHg 86%
    21:00 0°C° 0 mm 1 mps 586 mmHg 87%
    22:00 0°C° 0 mm 1 mps 586 mmHg 88%
    23:00 -1°C° 0 mm 1 mps 586 mmHg 88%

    30 March, Thursday

    Time Temperature Precipitation Wind Pressure Humidity
    00:00 -1°C° 0 mm 1 mps 586 mmHg 88%
    01:00 -2°C° 0 mm 1 mps 586 mmHg 89%
    02:00 -2°C° 0 mm 1 mps 585 mmHg 89%
    03:00 -2°C° 0 mm 1 mps 585 mmHg 89%
    04:00 -3°C° 0 mm 1 mps 584 mmHg 90%
    05:00 -2°C° 0 mm 1 mps 585 mmHg 86%
    06:00 -2°C° 0 mm 1 mps 585 mmHg 83%
    07:00 -1°C° 0 mm 1 mps 586 mmHg 80%
    08:00 +2°C° 0 mm 1 mps 587 mmHg 71%
    09:00 +4°C° 0 mm 1 mps 588 mmHg 61%
    10:00 +7°C° 0 mm 1 mps 590 mmHg 52%
    11:00 +8°C° 0 mm 1 mps 590 mmHg 50%
    12:00 +9°C° 0 mm 1 mps 590 mmHg 49%
    13:00 +9°C° 0 mm 1 mps 590 mmHg 47%
    14:00 +9°C° 0 mm 1 mps 590 mmHg 49%
    15:00 +9°C° 0 mm 1 mps 589 mmHg 52%
    16:00 +8°C° 0 mm 1 mps 589 mmHg 55%
    17:00 +6°C° 0 mm 1 mps 588 mmHg 65%
    18:00 +3°C° 0 mm 1 mps 586 mmHg 75%
    19:00 0°C° 0 mm 1 mps 585 mmHg 86%
    20:00 0°C° 0 mm 1 mps 585 mmHg 87%
    21:00 0°C° 0 mm 1 mps 585 mmHg 89%
    22:00 0°C° 0 mm 1 mps 585 mmHg 91%
    23:00 -1°C° 0 mm 1 mps 585 mmHg 92%

    31 March, Friday

    Time Temperature Precipitation Wind Pressure Humidity
    00:00 -1°C° 0 mm 1 mps 585 mmHg 93%
    01:00 -1°C° 0 mm 1 mps 585 mmHg 94%
    02:00 -1°C° 0 mm 1 mps 584 mmHg 94%
    03:00 -2°C° 0 mm 1 mps 584 mmHg 94%
    04:00 -2°C° 0 mm 1 mps 583 mmHg 95%
    05:00 -2°C° 0 mm 1 mps 584 mmHg 92%
    06:00 -1°C° 0 mm 1 mps 584 mmHg 90%
    07:00 -1°C° 0 mm 1 mps 584 mmHg 87%
    08:00 +1°C° 0 mm 1 mps 585 mmHg 76%
    09:00 +3°C° 0 mm 2 mps 585 mmHg 66%
    10:00 +5°C° 0 mm 2 mps 586 mmHg 55%
    11:00 +5°C° 0 mm 2 mps 586 mmHg 53%
    12:00 +6°C° 0 mm 2 mps 586 mmHg 52%
    13:00 +7°C° 0 mm 3 mps 586 mmHg 50%
    14:00 +6°C° 0 mm 2 mps 585 mmHg 53%
    15:00 +6°C° 0 mm 2 mps 584 mmHg 56%
    16:00 +6°C° 0 mm 2 mps 584 mmHg 59%
    17:00 +4°C° 0 mm 2 mps 583 mmHg 70%
    18:00 +2°C° 0 mm 2 mps 582 mmHg 80%
    19:00 -1°C° 0 mm 2 mps 581 mmHg 90%
    20:00 0°C° 0 mm 1 mps 581 mmHg 92%
    21:00 0°C° 0 mm 1 mps 581 mmHg 94%
    22:00 0°C° 0 mm 1 mps 581 mmHg 95%
    23:00 -1°C° 0 mm 1 mps 580 mmHg 95%

    1 April, Saturday

    Time Temperature Precipitation Wind Pressure Humidity
    00:00 -1°C° 0 mm 1 mps 580 mmHg 94%
    01:00 -1°C° 0 mm 1 mps 580 mmHg 94%
    02:00 -1°C° 0 mm 1 mps 579 mmHg 94%
    03:00 -1°C° 0 mm 1 mps 579 mmHg 93%
    04:00 -1°C° 0 mm 1 mps 579 mmHg 93%
    05:00 -1°C° 0 mm 1 mps 579 mmHg 91%
    06:00 -1°C° 0 mm 1 mps 579 mmHg 89%
    07:00 0°C° 0 mm 1 mps 579 mmHg 88%
    08:00 +1°C° 0.1 mm 1 mps 579 mmHg 81%
    09:00 +1°C° 0.1 mm 2 mps 580 mmHg 73%
    10:00 +2°C° 0.1 mm 2 mps 580 mmHg 66%
    11:00 +3°C° 0.3 mm 2 mps 580 mmHg 65%
    12:00 +3°C° 0.3 mm 2 mps 580 mmHg 63%
    13:00 +3°C° 0.3 mm 2 mps 580 mmHg 62%
    14:00 +3°C° 0.5 mm 2 mps 579 mmHg 65%
    15:00 +2°C° 0.5 mm 2 mps 579 mmHg 68%
    16:00 +2°C° 0.5 mm 2 mps 578 mmHg 71%
    17:00 -1°C° 0.3 mm 2 mps 578 mmHg 78%
    18:00 0°C° 0.3 mm 1 mps 577 mmHg 86%
    19:00 -1°C° 0.3 mm 1 mps 576 mmHg 94%
    20:00 -2°C° 0.2 mm 1 mps 577 mmHg 94%
    21:00 -2°C° 0.2 mm 1 mps 577 mmHg 95%
    22:00 -2°C° 0.2 mm 1 mps 577 mmHg 95%
    23:00 -3°C° 0.1 mm 1 mps 577 mmHg 95%
    Show more